Weather in Les Cayes

Haiti     18°12′27″N   73°45′29″W
В апреле 2022 года жителям России запретили посещать сайт meteo.paraplan.net по решению Генеральной прокуратуры. Аудитория сайта уменьшилась в 10 раз. Владельцы сайта не видят смысла в поддержке погодного сервера в таких условиях. Сайт будет закрыт в октябре.
temp.,
°C
wind,
m/s
gust,
m/s
humid.,
%
clouds,
%
prec.,
mm/h
press.,
hPa
HPBL,
m
2 october, sun
sun223:00+25ese348674 2.1 1014166
02:00+25se358652 4.1 1013202
05:00+24se238875 3.4 101399
08:00+26ese238379 4.2 1015292
11:00+27se3574100 1.6 1016903
14:00+27ese4574100 2.5 1014847
17:00+27ese2478100 0.1 1013639
20:00+25e2387100 0.3 1014122
3 october, mon
mon323:00+25e128786 0.5 1015118
02:00+24e128763 1.1 1014118
05:00+25ese128794 0.1 1013115
08:00+26ese3485100 0.4 1014352
11:00+28se457676 1.2 1015839
14:00+29se337261 3.9 1013853
17:00+28se337338 0.1 1012692
20:00+25ne1189100 0.1 101379
4 october, tue
tue423:00+24n228999 0.0 101444
02:00+24n1189100 0.0 101342
05:00+23n229084 0.0 101241
08:00+25n128155 0.0 1013128
11:00+30se326426 0.0 10141062
14:00+30sse436653 0.1 1012921
17:00+28se327378 0.3 1011648
20:00+25n118475 0.4 101248
5 october, wed
wed523:00+25nnw228873 0.0 101332
02:00+24nnw228898 0.1 101233
05:00+24n228989 0.1 101141
08:00+26n128292 0.1 1013130
11:00+30se336354 0.1 10131143
14:00+30sse326775 1.6 1012952
17:00+28sse227378 2.3 1010577
20:00+25nnw128520 2.8 101240
6 october, thu
thu623:00+25nnw228886 0.1 101348
02:00+25nnw228598 0.2 101245
05:00+24nne228774 0.8 101154
08:00+25ese238559 2.3 1013221
11:00+29se327049 0.7 1014922
14:00+29se4368100 2.2 1012905
17:00+27se3375100 2.1 1011580
20:00+25wsw018462 3.6 101384